FW9504 Weather Reports


time (UTC)temp
C
wind
direction
speed
KPH
gust
KPH
rain 1hr
cm
rain 24hr
cm
rain mn
cm
humidity
%
barometer
mb
20260506233058 15 234 20.9 24.1 0.00 0.00 0.00 84 1018.4
20260506232550 15 244 20.9 24.1 0.00 0.00 0.00 84 1018.5
20260506232050 15 244 19.3 25.7 0.00 0.00 0.00 85 1018.5
20260506231558 15 255 20.9 25.7 0.00 0.00 0.00 85 1018.6
20260506231051 15 252 22.5 25.7 0.00 0.00 0.00 86 1018.5
20260506230549 15 257 22.5 24.1 0.00 0.00 0.00 86 1018.7
20260506230058 15 245 20.9 24.1 0.00 0.00 0.00 87 1018.8
20260506225551 15 261 22.5 24.1 0.00 0.00 0.00 87 1018.9
20260506225051 15 254 20.9 24.1 0.00 0.00 0.00 87 1018.9
20260506224553 15 252 22.5 24.1 0.00 0.00 0.00 87 1019.0
20260506224050 15 245 20.9 22.5 0.00 0.00 0.00 87 1019.1
20260506223552 15 249 17.7 20.9 0.00 0.00 0.00 86 1019.2
20260506223057 15 246 17.7 20.9 0.00 0.00 0.00 86 1019.3
20260506222551 15 254 17.7 20.9 0.00 0.00 0.00 86 1019.4
20260506222051 15 246 19.3 20.9 0.00 0.00 0.00 86 1019.4
20260506221553 15 254 19.3 20.9 0.00 0.00 0.00 86 1019.5
20260506221050 15 259 19.3 22.5 0.00 0.00 0.00 86 1019.6
20260506220550 15 251 19.3 22.5 0.00 0.00 0.00 86 1019.7
20260506220057 15 253 20.9 22.5 0.00 0.00 0.00 87 1019.7
20260506215550 15 248 20.9 22.5 0.00 0.00 0.00 86 1019.7
20260506215050 15 249 20.9 22.5 0.00 0.00 0.00 86 1019.9
20260506214557 15 254 19.3 22.5 0.00 0.00 0.00 86 1019.9
20260506214050 15 244 20.9 22.5 0.00 0.00 0.00 86 1019.9
20260506213549 16 257 20.9 22.5 0.00 0.00 0.00 84 1019.8
20260506213113 16 242 17.7 20.9 0.00 0.00 0.00 83 1019.9
20260506212551 16 239 19.3 20.9 0.00 0.00 0.00 83 1020.0
20260506212051 16 242 17.7 19.3 0.00 0.00 0.00 83 1019.9
20260506211632 16 240 16.1 19.3 0.00 0.00 0.00 83 1020.1
20260506211051 16 242 16.1 19.3 0.00 0.00 0.00 84 1020.1
20260506210551 16 246 14.5 17.7 0.00 0.00 0.00 84 1020.1
20260506205550 16 240 14.5 16.1 0.00 0.00 0.00 83 1020.2
20260506205050 16 246 14.5 17.7 0.00 0.00 0.00 84 1020.2
20260506204559 16 230 12.9 17.7 0.00 0.00 0.00 84 1020.2
20260506204051 15 242 12.9 16.1 0.00 0.00 0.00 83 1020.3
20260506203550 16 244 11.3 14.5 0.00 0.00 0.00 83 1020.3
20260506203105 16 257 11.3 14.5 0.00 0.00 0.00 83 1020.2
20260506202550 16 246 11.3 14.5 0.00 0.00 0.00 84 1020.3
20260506202054 15 254 11.3 12.9 0.00 0.00 0.00 84 1020.4
20260506201610 15 242 11.3 14.5 0.00 0.00 0.00 84 1020.4
20260506201049 15 234 11.3 14.5 0.00 0.00 0.00 83 1020.5
20260506200550 15 244 11.3 12.9 0.00 0.00 0.00 83 1020.4
20260506200059 15 248 9.7 12.9 0.00 0.00 0.00 84 1020.5
20260506195552 15 240 11.3 14.5 0.00 0.00 0.00 83 1020.4
20260506195052 15 243 9.7 14.5 0.00 0.00 0.00 84 1020.5
20260506194610 15 239 9.7 12.9 0.00 0.00 0.00 83 1020.5
20260506194054 15 242 9.7 12.9 0.00 0.00 0.00 84 1020.6
20260506193554 15 239 9.7 12.9 0.00 0.00 0.00 83 1020.5
20260506193054 15 246 11.3 12.9 0.00 0.00 0.00 84 1020.5
20260506192551 15 244 11.3 12.9 0.00 0.00 0.00 84 1020.6
20260506192054 15 244 9.7 12.9 0.00 0.00 0.00 84 1020.6
20260506191605 15 237 9.7 12.9 0.00 0.00 0.00 83 1020.6
20260506191052 15 224 9.7 12.9 0.00 0.00 0.00 84 1020.6
20260506190550 15 240 9.7 12.9 0.00 0.00 0.00 84 1020.6
20260506190055 15 239 9.7 12.9 0.00 0.00 0.00 83 1020.6
20260506185552 15 242 11.3 12.9 0.00 0.00 0.00 83 1020.8
20260506185054 15 228 9.7 12.9 0.00 0.00 0.00 83 1020.8
20260506184605 15 222 9.7 12.9 0.00 0.00 0.00 83 1020.9
20260506184051 15 228 9.7 12.9 0.00 0.00 0.00 83 1020.9
20260506183550 15 233 8.0 14.5 0.00 0.00 0.00 83 1021.0
20260506183103 15 234 11.3 14.5 0.00 0.00 0.00 84 1020.9
20260506182549 15 225 11.3 14.5 0.00 0.00 0.00 83 1020.9
20260506182052 15 227 11.3 14.5 0.00 0.00 0.00 83 1020.9
20260506181552 15 226 11.3 14.5 0.00 0.00 0.00 83 1021.0
20260506181052 15 225 12.9 16.1 0.00 0.00 0.00 83 1021.0
20260506180552 15 245 12.9 16.1 0.00 0.00 0.00 83 1021.0
20260506180058 15 240 12.9 16.1 0.00 0.00 0.00 83 1021.0
20260506175551 15 255 12.9 14.5 0.00 0.00 0.00 83 1021.0
20260506175049 15 242 11.3 12.9 0.00 0.00 0.00 83 1021.0
20260506174552 15 263 9.7 12.9 0.00 0.00 0.00 84 1020.9
20260506174051 15 236 9.7 14.5 0.00 0.00 0.00 82 1020.9
20260506173551 15 234 9.7 14.5 0.00 0.00 0.00 83 1020.8
20260506173053 15 240 9.7 12.9 0.00 0.00 0.00 82 1020.9
20260506172554 15 236 11.3 12.9 0.00 0.00 0.00 82 1020.8
20260506172051 15 246 9.7 11.3 0.00 0.00 0.00 82 1020.9
20260506171553 15 249 8.0 11.3 0.00 0.00 0.00 82 1020.8
20260506171053 15 243 8.0 11.3 0.00 0.00 0.00 82 1020.7
20260506170549 15 258 6.4 9.7 0.00 0.00 0.00 82 1020.7
20260506170107 15 238 6.4 8.0 0.00 0.00 0.00 82 1020.7
20260506165553 15 253 6.4 8.0 0.00 0.00 0.00 82 1020.7
20260506165051 15 260 6.4 8.0 0.00 0.00 0.00 82 1020.7
20260506164551 15 265 6.4 9.7 0.00 0.00 0.00 82 1020.8
20260506164049 15 264 8.0 9.7 0.00 0.00 0.00 82 1020.7
20260506163553 15 264 6.4 9.7 0.00 0.00 0.00 82 1020.7
20260506163102 15 265 8.0 9.7 0.00 0.00 0.00 82 1020.7
20260506162550 15 262 8.0 9.7 0.00 0.00 0.00 81 1020.7
20260506162049 15 258 8.0 9.7 0.00 0.00 0.00 80 1020.7
20260506161551 15 263 6.4 9.7 0.00 0.00 0.00 81 1020.7
20260506161049 14 257 6.4 9.7 0.00 0.00 0.00 81 1020.6
20260506160549 14 257 6.4 9.7 0.00 0.00 0.00 81 1020.6
20260506160053 14 264 6.4 9.7 0.00 0.00 0.00 82 1020.6
20260506155551 14 264 6.4 9.7 0.00 0.00 0.00 82 1020.6
20260506155055 14 247 6.4 6.4 0.00 0.00 0.00 82 1020.5
20260506154552 14 265 4.8 6.4 0.00 0.00 0.00 82 1020.5
20260506154052 14 265 4.8 6.4 0.00 0.00 0.00 82 1020.4
20260506153550 14 265 4.8 4.8 0.00 0.00 0.00 81 1020.4
20260506153055 14 265 4.8 6.4 0.00 0.00 0.00 80 1020.5
20260506152549 15 265 3.2 6.4 0.00 0.00 0.00 79 1020.5
20260506152050 15 269 3.2 6.4 0.00 0.00 0.00 77 1020.5
20260506151602 15 102 1.6 4.8 0.00 0.00 0.00 77 1020.5
20260506151053 15 352 1.6 6.4 0.00 0.00 0.00 76 1020.5
20260506150550 15 52 3.2 6.4 0.00 0.00 0.00 76 1020.5
20260506150100 15 28 4.8 11.3 0.00 0.00 0.00 76 1020.5
20260506145549 15 82 3.2 11.3 0.00 0.00 0.00 77 1020.5
20260506145054 15 78 6.4 9.7 0.00 0.00 0.00 77 1020.5
20260506144605 15 66 4.8 9.7 0.00 0.00 0.00 79 1020.5
20260506144051 14 39 6.4 9.7 0.00 0.00 0.00 81 1020.3
20260506143551 14 46 1.6 4.8 0.00 0.00 0.00 82 1020.3
20260506143108 13 28 1.6 3.2 0.00 0.00 0.00 84 1020.3
20260506142551 13 28 0.0 4.8 0.00 0.00 0.00 84 1020.3
20260506142052 13 28 1.6 4.8 0.00 0.00 0.00 85 1020.3
20260506141556 13 32 1.6 3.2 0.00 0.00 0.00 86 1020.3
20260506141053 13 0 0.0 3.2 0.00 0.00 0.00 86 1020.3
20260506140552 12 31 1.6 4.8 0.00 0.00 0.00 86 1020.2
20260506140056 12 31 3.2 4.8 0.00 0.00 0.00 86 1020.2
20260506135549 12 31 3.2 4.8 0.00 0.00 0.00 86 1020.2
20260506135049 12 46 1.6 4.8 0.00 0.00 0.00 86 1020.1
20260506134557 12 47 3.2 6.4 0.00 0.00 0.00 87 1020.1
20260506134049 11 49 4.8 6.4 0.00 0.00 0.00 86 1020.1
20260506133549 11 67 4.8 6.4 0.00 0.00 0.00 86 1020.0
20260506133059 11 75 4.8 6.4 0.00 0.00 0.00 86 1020.0
20260506132549 11 78 4.8 6.4 0.00 0.00 0.00 85 1020.0
20260506132054 11 74 3.2 4.8 0.00 0.00 0.00 85 1020.0
20260506131600 11 104 1.6 3.2 0.00 0.00 0.00 85 1020.0
20260506131054 12 105 3.2 4.8 0.00 0.00 0.00 85 1020.0
20260506130552 12 121 1.6 4.8 0.00 0.00 0.00 85 1019.9
20260506125554 12 154 3.2 4.8 0.00 0.00 0.00 86 1019.9
20260506125052 12 153 3.2 6.4 0.00 0.00 0.00 86 1019.8
20260506124558 12 128 3.2 6.4 0.00 0.00 0.00 86 1019.8
20260506124051 12 134 4.8 6.4 0.00 0.00 0.00 86 1019.6
20260506123551 12 111 3.2 4.8 0.00 0.00 0.00 86 1019.7
20260506123052 12 83 1.6 3.2 0.00 0.00 0.00 86 1019.6
20260506122551 12 0 0.0 0.0 0.00 0.00 0.00 85 1019.6
20260506122051 12 0 0.0 3.2 0.00 0.00 0.00 85 1019.4
20260506121552 12 0 0.0 3.2 0.00 0.00 0.00 85 1019.4
20260506121051 12 83 0.0 3.2 0.00 0.00 0.00 85 1019.3
20260506120552 12 0 0.0 0.0 0.00 0.00 0.00 85 1019.3
20260506120055 12 0 0.0 0.0 0.00 0.00 0.00 84 1019.2
20260506115552 12 0 0.0 3.2 0.00 0.00 0.00 84 1019.2
20260506115051 12 0 0.0 4.8 0.00 0.00 0.00 84 1019.1
20260506114555 12 0 0.0 4.8 0.00 0.00 0.00 84 1019.1
20260506114051 12 83 3.2 4.8 0.00 0.00 0.00 84 1019.1
20260506113551 12 80 3.2 6.4 0.00 0.00 0.00 84 1019.1
20260506113052 12 80 4.8 6.4 0.00 0.00 0.00 84 1019.1
20260506112553 12 86 4.8 6.4 0.00 0.00 0.00 84 1019.0
20260506112051 12 81 4.8 6.4 0.00 0.00 0.00 84 1019.0
20260506111553 12 74 3.2 4.8 0.00 0.00 0.00 84 1019.1
20260506111051 12 67 4.8 4.8 0.00 0.00 0.00 84 1019.1
20260506110555 12 62 3.2 6.4 0.00 0.00 0.00 85 1019.1
20260506110052 13 59 3.2 6.4 0.00 0.00 0.00 85 1019.1
20260506105551 12 28 3.2 4.8 0.00 0.00 0.00 85 1019.0
20260506105052 12 0 0.0 0.0 0.00 0.00 0.00 85 1019.1
20260506104553 12 0 0.0 0.0 0.00 0.00 0.00 85 1019.0
20260506104051 12 0 0.0 0.0 0.00 0.00 0.00 85 1019.1
20260506103552 12 0 0.0 1.6 0.00 0.00 0.00 85 1019.0
20260506103055 13 0 0.0 1.6 0.00 0.00 0.00 85 1019.0
20260506102552 12 61 0.0 4.8 0.00 0.00 0.00 85 1019.0
20260506102052 12 61 1.6 6.4 0.00 0.00 0.00 84 1018.9
20260506101552 12 61 4.8 6.4 0.00 0.00 0.00 84 1018.9
20260506101051 12 61 4.8 6.4 0.00 0.00 0.00 84 1018.9
20260506100551 12 78 3.2 4.8 0.00 0.00 0.00 84 1019.1
20260506100053 13 78 1.6 4.8 0.00 0.00 0.00 84 1019.0
20260506095551 13 89 0.0 4.8 0.00 0.00 0.00 84 1019.1
20260506095055 13 89 0.0 8.0 0.00 0.00 0.00 84 1019.1
20260506094554 13 97 4.8 8.0 0.00 0.00 0.00 84 1019.0
20260506094052 13 77 4.8 6.4 0.00 0.00 0.00 84 1019.0
20260506093552 13 76 4.8 8.0 0.00 0.00 0.00 84 1019.1
20260506093055 13 69 4.8 8.0 0.00 0.00 0.00 84 1019.1
20260506092550 13 74 4.8 8.0 0.00 0.00 0.00 84 1019.1
20260506092049 13 60 6.4 8.0 0.00 0.00 0.00 84 1019.2
20260506091559 13 57 4.8 9.7 0.00 0.00 0.00 84 1019.3
20260506091052 13 71 3.2 11.3 0.00 0.00 0.00 84 1019.3
20260506090551 13 55 8.0 11.3 0.00 0.00 0.00 84 1019.3
20260506090056 13 58 6.4 12.9 0.00 0.00 0.00 84 1019.3
20260506085551 13 65 6.4 12.9 0.00 0.00 0.00 84 1019.3
20260506085049 13 68 6.4 14.5 0.00 0.00 0.00 84 1019.4
20260506084612 13 74 6.4 14.5 0.00 0.00 0.00 84 1019.4
20260506084050 13 59 8.0 14.5 0.00 0.00 0.00 84 1019.5
20260506083550 13 64 9.7 14.5 0.00 0.00 0.00 84 1019.4
20260506083054 13 63 9.7 16.1 0.00 0.00 0.00 84 1019.4
20260506082550 13 67 8.0 17.7 0.00 0.00 0.00 84 1019.4
20260506082051 13 59 11.3 17.7 0.00 0.00 0.00 84 1019.3
20260506081553 13 77 9.7 16.1 0.00 0.00 0.00 84 1019.4
20260506081049 13 66 9.7 16.1 0.00 0.00 0.00 84 1019.4
20260506080552 13 69 8.0 16.1 0.00 0.00 0.00 84 1019.5
20260506073100 13 63 14.5 22.5 0.00 0.00 0.00 84 1019.3
20260506072552 13 69 12.9 19.3 0.00 0.00 0.00 84 1019.3
20260506072053 13 76 12.9 22.5 0.00 0.00 0.00 84 1019.3
20260506071554 13 46 14.5 22.5 0.00 0.00 0.00 84 1019.3
20260506071051 14 64 12.9 22.5 0.00 0.00 0.00 84 1019.3
20260506070551 14 77 11.3 19.3 0.00 0.00 0.00 84 1019.2
20260506062052 14 85 9.7 16.1 0.00 0.00 0.00 84 1018.7
20260506061600 14 64 9.7 16.1 0.00 0.00 0.00 85 1018.7
20260506061052 14 63 11.3 16.1 0.00 0.00 0.00 85 1018.5
20260506060551 14 71 9.7 16.1 0.00 0.00 0.00 85 1018.5
20260506051051 14 88 4.8 12.9 0.00 0.00 0.00 85 1018.3
20260506050553 14 94 4.8 12.9 0.00 0.00 0.00 85 1018.3
20260506050108 14 88 9.7 12.9 0.00 0.00 0.00 85 1018.1
20260506045051 14 86 6.4 12.9 0.00 0.00 0.00 86 1018.1
20260506044554 14 86 6.4 12.9 0.00 0.00 0.00 86 1018.1
20260506044050 14 78 6.4 11.3 0.00 0.00 0.00 86 1018.0
20260506043548 14 87 6.4 14.5 0.00 0.00 0.00 86 1018.0
20260506043055 14 47 8.0 14.5 0.00 0.00 0.00 86 1017.9
20260506042551 14 84 8.0 12.9 0.00 0.00 0.00 86 1017.9
20260506042048 14 84 6.4 12.9 0.00 0.00 0.00 86 1017.9
20260506041552 14 74 6.4 11.3 0.00 0.00 0.00 86 1017.9
20260506041048 15 84 3.2 6.4 0.00 0.00 0.00 86 1017.7
20260506040551 14 75 4.8 6.4 0.00 0.00 0.00 87 1017.6
20260506040104 14 85 4.8 6.4 0.00 0.00 0.00 86 1017.5
20260506035551 14 82 1.6 4.8 0.00 0.00 0.00 87 1017.5
20260506035054 14 136 3.2 4.8 0.00 0.00 0.00 87 1017.4
20260506034556 14 187 1.6 3.2 0.00 0.00 0.00 87 1017.3
20260506034051 14 187 1.6 3.2 0.00 0.00 0.00 86 1017.3
20260506033551 15 187 1.6 4.8 0.00 0.00 0.00 86 1017.2
20260506033056 15 187 1.6 4.8 0.00 0.00 0.00 86 1017.3
20260506032549 15 187 4.8 4.8 0.00 0.00 0.00 87 1017.2
20260506032050 15 187 1.6 6.4 0.00 0.00 0.00 86 1017.1
20260506031553 15 187 3.2 8.0 0.00 0.00 0.00 86 1017.0
20260506031052 15 187 6.4 12.9 0.00 0.00 0.00 86 1016.9
20260506030548 15 187 8.0 14.5 0.00 0.00 0.00 86 1016.8
20260506030057 15 179 11.3 14.5 0.00 0.00 0.00 86 1016.6
20260506025548 15 155 4.8 11.3 0.00 0.00 0.00 85 1016.6
20260506025048 15 154 6.4 11.3 0.00 0.00 0.00 85 1016.4
20260506024558 15 177 9.7 11.3 0.00 0.00 0.00 85 1016.4
20260506024048 15 198 9.7 9.7 0.00 0.00 0.00 85 1016.3
20260506023550 15 198 8.0 9.7 0.00 0.00 0.00 84 1016.2
20260506023052 15 173 8.0 9.7 0.00 0.00 0.00 83 1016.3
20260506022548 15 201 6.4 9.7 0.00 0.00 0.00 83 1016.2
20260506022048 15 209 6.4 9.7 0.00 0.00 0.00 84 1016.2
20260506021601 15 205 6.4 9.7 0.00 0.00 0.00 83 1016.1
20260506021049 15 216 6.4 9.7 0.00 0.00 0.00 84 1016.2
20260506020548 15 224 6.4 8.0 0.00 0.00 0.00 83 1016.0
20260506020055 15 225 6.4 12.9 0.00 0.00 0.00 84 1016.1
20260506015552 15 209 6.4 12.9 0.00 0.00 0.00 84 1016.1
20260506015050 15 210 9.7 12.9 0.00 0.00 0.00 83 1016.0
20260506014555 15 218 11.3 14.5 0.00 0.00 0.00 83 1016.0
20260506014048 15 225 11.3 14.5 0.00 0.00 0.00 83 1016.1
20260506013549 15 225 12.9 17.7 0.00 0.00 0.00 84 1015.9
20260506013104 15 239 12.9 22.5 0.00 0.00 0.00 84 1016.1
20260506012549 15 239 17.7 22.5 0.00 0.00 0.00 84 1016.1
20260506012049 15 227 20.9 24.1 0.00 0.00 0.00 84 1016.1
20260506011607 15 232 20.9 27.4 0.00 0.00 0.00 85 1015.9
20260506011048 15 245 22.5 27.4 0.00 0.00 0.00 85 1016.0
20260506010548 15 244 24.1 29.0 0.00 0.00 0.00 85 1016.0
20260506010056 15 240 24.1 29.0 0.00 0.00 0.00 85 1016.1
20260506005547 15 240 24.1 30.6 0.00 0.00 0.00 85 1016.0
20260506005047 15 242 24.1 30.6 0.00 0.00 0.00 85 1016.1
20260506004554 15 236 27.4 30.6 0.00 0.00 0.00 84 1016.1
20260506004050 15 240 25.7 32.2 0.00 0.00 0.00 84 1016.0
20260506003549 15 242 24.1 32.2 0.00 0.00 0.00 84 1016.1
20260506003056 15 239 25.7 30.6 0.00 0.00 0.00 84 1016.1
20260506002552 15 252 25.7 29.0 0.00 0.00 0.00 84 1016.2
20260506002050 15 251 24.1 30.6 0.00 0.00 0.00 84 1016.3
20260506001554 15 254 25.7 32.2 0.00 0.00 0.00 84 1016.2
20260506001053 15 237 25.7 33.8 0.00 0.00 0.00 83 1016.1
20260506000548 15 238 25.7 33.8 0.00 0.00 0.00 83 1016.1
20260506000050 15 219 27.4 32.2 0.00 0.00 0.00 83 1015.9
20260505235550 15 224 29.0 32.2 0.00 0.00 0.00 83 1016.0
20260505235050 15 242 25.7 29.0 0.00 0.00 0.00 83 1016.0
20260505234600 15 246 20.9 29.0 0.00 0.00 0.00 83 1016.0
20260505234050 15 250 22.5 27.4 0.00 0.00 0.00 83 1016.0
20260505233550 15 238 22.5 27.4 0.00 0.00 0.00 83 1016.0